Location: Belvedere Heights
(33.9836°N, 117.3109°W)
Time: 19:26:48
(UTC+00:00)

ARIANE 5 R/B - Pass Details

Date: 21 March 2023
Orbit: 747 x 794 km, 98.8° (Epoch: 08 June)

Event Time Altitude Azimuth Distance (km) Brightness Sun altitude
Rises 12:36:07 0° 3° (N) 3,258 6.0 -16.4°
Reaches altitude 10° 12:38:33 10° 356° (N) 2,334 5.1 -15.9°
Maximum altitude 12:43:17 38° 289° (WNW) 1,177 3.0 -14.9°
Enters shadow 12:47:05 15° 227° (SW) 2,004 4.2 -14.2°
